TimeEDT,TemperatureF,Dew PointF,Humidity,Sea Level PressureIn,VisibilityMPH,Wind Direction,Wind SpeedMPH,Gust SpeedMPH,PrecipitationIn,Events,Conditions,WindDirDegrees,DateUTC
12:51 AM,-7.1,-11.0,83,30.37,10.0,Calm,Calm,-,N/A,,Clear,0,2013-03-18 04:51:00
1:51 AM,-9.0,-13.0,83,30.38,10.0,Calm,Calm,-,N/A,,Clear,0,2013-03-18 05:51:00
2:51 AM,-11.0,-15.0,83,30.38,10.0,NNE,3.5,-,N/A,,Clear,30,2013-03-18 06:51:00
3:51 AM,-11.0,-16.1,78,30.38,10.0,Calm,Calm,-,N/A,,Clear,0,2013-03-18 07:51:00
4:51 AM,-13.0,-17.0,82,30.38,10.0,Calm,Calm,-,N/A,,Clear,0,2013-03-18 08:51:00
5:51 AM,-13.0,-17.0,82,30.40,10.0,Calm,Calm,-,N/A,,Clear,0,2013-03-18 09:51:00
6:51 AM,-13.0,-18.0,78,30.42,10.0,Calm,Calm,-,N/A,,Clear,0,2013-03-18 10:51:00
7:51 AM,-9.9,-15.0,78,30.42,10.0,Calm,Calm,-,N/A,,Clear,0,2013-03-18 11:51:00
8:51 AM,-0.0,-5.1,79,30.42,10.0,Calm,Calm,-,N/A,,Clear,0,2013-03-18 12:51:00
9:51 AM,10.9,-0.0,61,30.42,10.0,Calm,Calm,-,N/A,,Clear,0,2013-03-18 13:51:00
10:51 AM,19.0,-0.9,42,30.39,10.0,Calm,Calm,-,N/A,,Clear,0,2013-03-18 14:51:00
11:51 AM,25.0,-0.9,33,30.36,9.0,Calm,Calm,-,0.00,,Clear,0,2013-03-18 15:51:00
12:51 PM,27.0,-2.0,29,30.33,9.0,Calm,Calm,-,0.00,Snow,Light Snow,0,2013-03-18 16:51:00
1:51 PM,28.9,-2.0,26,30.30,10.0,ESE,3.5,-,N/A,,Clear,110,2013-03-18 17:51:00
3:51 PM,28.9,6.1,38,30.23,10.0,ENE,9.2,-,0.00,,Clear,60,2013-03-18 19:51:00
4:51 PM,28.9,6.1,38,30.19,10.0,ENE,12.7,-,N/A,,Clear,70,2013-03-18 20:51:00
5:51 PM,28.0,6.1,39,30.18,10.0,ENE,9.2,-,N/A,,Clear,60,2013-03-18 21:51:00
6:51 PM,27.0,7.0,43,30.15,10.0,ENE,4.6,-,N/A,,Clear,70,2013-03-18 22:51:00
7:51 PM,26.1,8.1,47,30.14,10.0,ENE,6.9,-,N/A,,Clear,60,2013-03-18 23:51:00
8:51 PM,26.1,3.9,39,30.12,10.0,ENE,4.6,-,N/A,,Overcast,70,2013-03-19 00:51:00
9:51 PM,26.1,3.9,39,30.09,10.0,ENE,6.9,-,N/A,,Overcast,70,2013-03-19 01:51:00
10:51 PM,27.0,8.1,45,30.03,10.0,SE,5.8,-,N/A,,Overcast,130,2013-03-19 02:51:00
11:51 PM,26.1,12.9,58,29.98,8.0,ENE,4.6,-,N/A,,Overcast,60,2013-03-19 03:51:00